Weather History for Mt. Pocono, PA

Change the Weather History Date:

Wednesday, May 29, 2013

  Actual Average Record
Temperature  
Mean Temperature 67 °F 59 °F  
Max Temperature 79 °F 69 °F 89 °F (1911)
Min Temperature 54 °F 49 °F 28 °F (1936)
Degree Days  
Heating Degree Days 0 7  
Month to date heating degree days 307 307  
Since 1 July heating degree days 6752 7001  
Cooling Degree Days 2 1  
Month to date cooling degree days 15 11  
Year to date cooling degree days 16 15  
Growing Degree Days 16 (Base 50)    
Moisture  
Dew Point 60 °F    
Average Humidity 78    
Maximum Humidity 100    
Minimum Humidity 56    
Precipitation  
Precipitation 0.03 in 0.16 in 2.77 in (1984)
Month to date precipitation 4.52 4.05  
Year to date precipitation 14.01 17.16  
Sea Level Pressure  
Sea Level Pressure 30.09 in    
Wind  
Wind Speed 9 mph (West)    
Max Wind Speed 18 mph    
Max Gust Speed 28 mph    
Visibility 6 miles    
Events Fog , Rain    
T = Trace of Precipitation, MM = Missing Value Source: NWS Daily Summary

Daily Weather History Graph

Daily Weather History Graph

Search for Another Location

Airport:

Trip Planner

Search our weather history database for the weather conditions in past years. The results will help you decide how hot, cold, wet, or windy it might be!

Date:

Astronomy

May. 29, 2013 Rise Set
Actual Time 5:32 AM EDT 8:25 PM EDT
Civil Twilight 4:59 AM EDT 8:58 PM EDT
Nautical Twilight 4:18 AM EDT 9:40 PM EDT
Astronomical Twilight 3:30 AM EDT 10:28 PM EDT
Moon No Moon Rise 10:30 AM EDT (5/29)
Length of Visible Light 15h 58m
Length of Day
14h 53m
Waning Gibbous, 73% of the Moon is Illuminated
May 29
Waning Gibbous
May 31
Last Quarter
Jun 8
New
Jun 16
First Quarter
Jun 23
Full

Hourly Weather History & Observations

Time (EDT) Temp. Dew Point Humidity Pressure Visibility Wind Dir Wind Speed Gust Speed Precip Events Conditions
12:53 AM 54.0 °F 53.1 °F 97% 30.14 in 0.2 mi Variable 4.6 mph - N/A Fog Fog
1:53 AM 55.9 °F 55.0 °F 97% 30.12 in 0.2 mi SSW 4.6 mph - N/A Fog Fog
2:53 AM 59.0 °F 57.9 °F 96% 30.10 in 0.2 mi West 4.6 mph - 0.00 in Fog Fog
3:37 AM 60.8 °F 59.0 °F 94% 30.09 in 0.5 mi WSW 8.1 mph - 0.00 in Fog , Rain Light Rain
3:49 AM 60.8 °F 59.0 °F 94% 30.09 in 1.2 mi WSW 6.9 mph - 0.01 in Rain Light Rain
3:53 AM 60.1 °F 59.0 °F 96% 30.09 in 1.0 mi WSW 4.6 mph - 0.01 in Rain Light Rain
4:04 AM 60.8 °F 59.0 °F 94% 30.08 in 0.8 mi WSW 8.1 mph - 0.00 in   Overcast
4:53 AM 60.1 °F 59.0 °F 96% 30.09 in 0.5 mi West 9.2 mph - 0.00 in Fog , Rain Light Rain
5:13 AM 60.8 °F 59.0 °F 94% 30.09 in 1.5 mi West 11.5 mph - 0.00 in Rain Light Rain
5:22 AM 60.8 °F 59.0 °F 94% 30.09 in 2.5 mi West 9.2 mph - 0.01 in Rain Light Rain
5:35 AM 60.8 °F 59.0 °F 94% 30.08 in 4.0 mi West 10.4 mph - 0.01 in Rain Light Rain
5:49 AM 60.8 °F 59.0 °F 94% 30.08 in 3.0 mi West 10.4 mph - 0.01 in Rain Light Rain
5:53 AM 61.0 °F 59.0 °F 93% 30.08 in 3.0 mi West 10.4 mph - 0.02 in Rain Light Rain
6:22 AM 60.8 °F 60.8 °F 100% 30.08 in 2.5 mi West 9.2 mph - 0.00 in Rain Light Rain
6:53 AM 61.0 °F 60.1 °F 97% 30.09 in 2.5 mi WNW 5.8 mph - 0.00 in   Scattered Clouds
7:48 AM 62.6 °F 60.8 °F 94% 30.10 in 2.5 mi West 4.6 mph - N/A   Scattered Clouds
7:53 AM 63.0 °F 61.0 °F 93% 30.10 in 2.5 mi West 5.8 mph - N/A   Scattered Clouds
8:01 AM 62.6 °F 60.8 °F 94% 30.11 in 2.5 mi West 8.1 mph - N/A   Mostly Cloudy
8:08 AM 62.6 °F 60.8 °F 94% 30.11 in 3.0 mi West 8.1 mph - N/A   Mostly Cloudy
8:40 AM 64.4 °F 62.6 °F 94% 30.11 in 4.0 mi West 9.2 mph - N/A   Scattered Clouds
8:53 AM 64.9 °F 61.0 °F 87% 30.11 in 5.0 mi West 9.2 mph - N/A   Partly Cloudy
9:53 AM 71.1 °F 62.1 °F 73% 30.10 in 10.0 mi West 11.5 mph 20.7 mph N/A   Scattered Clouds
10:53 AM 72.0 °F 61.0 °F 68% 30.10 in 10.0 mi West 11.5 mph - N/A   Scattered Clouds
11:53 AM 75.0 °F 61.0 °F 62% 30.10 in 10.0 mi West 13.8 mph 20.7 mph N/A   Clear
12:53 PM 77.0 °F 63.0 °F 62% 30.09 in 10.0 mi WSW 17.3 mph 21.9 mph N/A   Scattered Clouds
1:53 PM 78.1 °F 62.1 °F 58% 30.08 in 10.0 mi West 11.5 mph 27.6 mph N/A   Partly Cloudy
2:53 PM 75.9 °F 66.0 °F 71% 30.08 in 10.0 mi SSW 10.4 mph - N/A   Overcast
3:53 PM 77.0 °F 64.9 °F 66% 30.08 in 10.0 mi SW 8.1 mph 17.3 mph N/A   Overcast
4:53 PM 77.0 °F 64.0 °F 64% 30.07 in 10.0 mi WSW 10.4 mph - N/A   Mostly Cloudy
5:53 PM 77.0 °F 63.0 °F 62% 30.06 in 10.0 mi WSW 10.4 mph 20.7 mph 0.00 in   Partly Cloudy
6:53 PM 77.0 °F 61.0 °F 58% 30.06 in 10.0 mi SW 12.7 mph 21.9 mph N/A   Clear
7:21 PM 77.0 °F 60.8 °F 57% 30.08 in 10.0 mi SW 12.7 mph 20.7 mph N/A   Partly Cloudy
7:53 PM 75.9 °F 61.0 °F 60% 30.04 in 10.0 mi WSW 10.4 mph - N/A   Clear
8:53 PM 73.0 °F 61.0 °F 66% 30.05 in 10.0 mi WSW 4.6 mph - N/A   Clear
9:53 PM 71.1 °F 61.0 °F 70% 30.07 in 10.0 mi West 3.5 mph - N/A   Clear
10:53 PM 69.1 °F 61.0 °F 75% 30.09 in 10.0 mi West 6.9 mph - N/A   Clear
11:53 PM 68.0 °F 60.1 °F 76% 30.10 in 10.0 mi West 8.1 mph - N/A   Clear